Date,TemperatureHighF,TemperatureAvgF,TemperatureLowF,DewpointHighF,DewpointAvgF,DewpointLowF,HumidityHigh,HumidityAvg,HumidityLow,PressureMaxIn,PressureMinIn,WindSpeedMaxMPH,WindSpeedAvgMPH,GustSpeedMaxMPH,PrecipitationSumIn
2013-1-1,39,32,28,30,28,26,92,85,63,30.40,30.29,0,0,0,0.00
2013-1-2,40,30,23,28,24,21,91,80,55,30.27,30.13,0,0,0,0.01
2013-1-3,38,30,22,29,24,20,90,80,63,30.15,30.09,0,0,0,0.00
2013-1-4,52,43,38,44,39,35,93,86,69,30.27,30.11,0,0,0,0.01
2013-1-5,38,36,33,36,34,31,94,92,88,30.16,30.10,0,0,0,0.09
2013-1-6,47,42,37,42,38,35,94,87,71,30.18,30.05,0,0,0,0.10
2013-1-7,51,48,44,48,44,40,90,88,84,30.17,30.00,0,0,0,0.12
2013-1-8,54,50,47,47,46,44,90,84,75,30.17,29.89,0,0,0,0.02
2013-1-9,50,42,35,45,38,32,90,85,72,29.94,29.68,0,0,0,0.45
2013-1-10,39,36,34,36,34,32,91,90,85,30.06,29.94,0,0,0,0.11
2013-1-11,38,32,28,32,29,26,93,88,66,30.25,30.06,0,0,0,0.01
2013-1-12,35,29,26,29,25,22,92,86,75,30.34,30.23,0,0,0,0.00
2013-1-13,28,26,25,25,23,21,92,87,80,30.44,30.34,0,0,0,0.00
2013-1-14,35,30,26,31,26,23,90,85,78,30.52,30.44,0,0,0,0.00
2013-1-15,38,35,33,34,32,30,92,89,85,30.59,30.50,0,0,0,0.00
2013-1-16,34,33,31,32,31,29,93,92,90,30.59,30.43,0,0,0,0.00
2013-1-17,32,32,30,31,30,28,93,93,92,30.43,30.26,0,0,0,0.01
2013-1-18,32,30,28,31,28,26,94,93,93,30.28,30.22,0,0,0,0.00
2013-1-19,31,28,25,30,27,23,94,93,92,30.30,30.23,0,0,0,0.01
2013-1-20,29,27,24,28,25,22,93,93,91,30.32,30.20,0,0,0,0.00
2013-1-21,30,26,23,28,25,21,94,92,91,30.23,30.11,0,0,0,0.00
2013-1-22,32,27,22,31,26,20,94,93,90,30.11,29.89,0,0,0,0.00
2013-1-23,35,33,30,34,31,28,94,94,94,30.14,29.85,0,0,0,0.29
2013-1-24,45,36,32,44,35,30,95,94,94,30.17,30.06,0,0,0,0.23
2013-1-25,50,46,40,49,44,38,95,95,94,30.08,29.92,0,0,0,0.46
2013-1-26,45,40,36,40,37,33,94,88,75,30.05,29.90,0,0,0,0.23
2013-1-27,42,39,37,39,36,34,93,91,85,30.12,30.02,0,0,0,0.32
2013-1-28,43,40,37,40,38,35,93,92,91,30.19,30.05,0,0,0,0.76
2013-1-29,45,44,42,43,41,40,93,92,91,30.45,30.19,0,0,0,0.34
2013-1-30,48,44,42,44,42,40,93,91,87,30.46,30.40,0,0,0,0.17
2013-1-31,53,47,42,46,43,41,93,86,64,30.41,30.28,0,0,0,0.02